User: anonymous   Login
Location: Nashville
(36.1660°N, 86.7840°W)
Time: 06:57:51
(UTC-05:00)
Language:

CUTE 1.7 + AOD 2 - Orbit

View from above orbital plane
View from above orbital plane
View from above satellite
View from above satellite

Ground track
Ground track

The orbit data is extracted from the following two-line orbital elements,

1 32785U 08021C   22142.16455433  .00003160  00000-0  33706-3 0  9990
2 32785  97.6556 113.8508 0011721 328.0542  31.9964 14.89498885762648
Epoch (UTC): 22 May 2022 03:56:57
Eccentricity: 0.0011721
inclination: 97.6556°
perigee height: 591 km
apogee height: 607 km
right ascension of ascending node: 113.8508°
argument of perigee: 328.0542°
revolutions per day: 14.89498885
mean anomaly at epoch: 31.9964°
orbit number at epoch: 76264

The dashed part of the orbit path shows where the satellite is in the earth's shadow,  

DLR